GALILEO104 [ESA] 1 38858C 12055B 22226.99979167 .00000000 00000+0 00000+0 0 2267 2 38858 55.1526 140.0911 0001015 266.9732 142.1557 1.70474176 19 GALILEO104 [GAL] 1 38858C 12055B 22227.01020833 .00000000 00000+0 00000+0 0 2279 2 38858 55.1526 140.0908 0001015 266.9960 148.5259 1.70474177 18